�N����,����,�~����,�C��,���x,�C��,����,���ϕ���,�ő�u�ԕ���,�ő厞����,���˗�,�I�_���x,�n�����x,�ő啗���N��,DTYPE
"21/03/11","00:10",0.0,3.4,72.5,1023.7,312.4,1.8,3.1,312.3,0.00,-1.0,130.0,"00:06:24",1
"21/03/11","00:20",0.0,3.3,73.3,1023.7,321.2,2.1,3.5,323.7,0.00,-1.0,130.0,"00:13:04",1
"21/03/11","00:30",0.0,3.1,74.2,1023.0,325.0,2.7,4.2,341.7,0.00,-1.0,130.0,"00:26:08",1
"21/03/11","00:40",0.0,3.1,74.7,1023.2,314.3,2.0,3.4,325.3,0.00,-0.9,130.0,"00:32:16",1
"21/03/11","00:50",0.0,2.6,75.4,1023.2,307.8,2.1,3.5,321.8,0.00,-1.3,130.0,"00:44:56",1
"21/03/11","01:00",0.0,2.3,76.4,1023.4,288.1,1.7,2.5,323.2,0.00,-1.4,130.0,"00:58:56",1
"21/03/11","01:10",0.0,2.1,77.1,1023.0,315.1,2.2,3.4,327.6,0.00,-1.4,130.0,"01:05:04",1
"21/03/11","01:20",0.0,2.0,78.1,1023.0,321.8,2.2,3.3,323.3,0.00,-1.4,130.0,"01:18:00",1
"21/03/11","01:30",0.0,1.7,78.8,1023.2,302.0,1.5,2.1,302.3,0.00,-1.5,130.0,"01:28:48",1
"21/03/11","01:40",0.0,1.5,79.6,1023.0,295.8,1.5,2.7,302.4,0.00,-1.6,130.0,"01:32:16",1
"21/03/11","01:50",0.0,1.4,80.3,1022.7,304.1,1.2,1.8,328.2,0.00,-1.6,130.0,"01:46:56",1
"21/03/11","02:00",0.0,1.5,81.2,1022.5,261.2,0.3,1.8,319.5,0.00,-1.3,130.0,"01:50:02",1
"21/03/11","02:10",0.0,1.6,81.7,1023.4,289.3,0.6,2.4,323.5,0.00,-1.1,130.0,"02:00:16",1
"21/03/11","02:20",0.0,1.6,82.7,1023.0,275.4,1.3,1.6,260.1,0.00,-1.0,130.0,"02:19:44",1
"21/03/11","02:30",0.0,1.6,83.4,1023.0,323.2,2.3,3.2,337.4,0.00,-0.9,130.0,"02:28:56",1
"21/03/11","02:40",0.0,1.3,83.8,1023.0,300.2,1.5,2.8,327.5,0.00,-1.1,130.0,"02:34:08",1
"21/03/11","02:50",0.0,1.1,84.7,1023.0,305.0,1.8,2.8,323.5,0.00,-1.1,130.0,"02:49:36",1
"21/03/11","03:00",0.0,1.0,85.4,1023.2,327.5,2.3,2.9,339.1,0.00,-1.1,130.0,"02:52:48",1
"21/03/11","03:10",0.0,1.3,86.2,1023.2,326.9,2.8,4.4,326.6,0.00,-0.7,130.0,"03:06:24",1
"21/03/11","03:20",0.0,1.9,86.5,1023.0,322.4,3.5,5.4,313.7,0.00,-0.1,130.0,"03:19:36",1
"21/03/11","03:30",0.0,2.5,86.2,1023.2,313.6,3.5,5.2,329.1,0.00,0.5,130.0,"03:22:56",1
"21/03/11","03:40",0.0,2.4,85.8,1023.4,313.6,2.6,4.3,315.1,0.00,0.3,130.0,"03:31:20",1
"21/03/11","03:50",0.0,2.2,85.5,1023.0,319.9,2.5,3.2,325.3,0.00,0.1,130.0,"03:41:52",1
"21/03/11","04:00",0.0,1.9,85.3,1023.7,248.4,0.3,1.2,295.7,0.00,-0.3,130.0,"03:50:24",1
"21/03/11","04:10",0.0,1.5,85.4,1023.2,317.8,1.7,2.4,320.3,0.00,-0.6,130.0,"04:04:56",1
"21/03/11","04:20",0.0,1.2,85.4,1023.2,315.3,2.1,2.5,319.8,0.00,-0.9,130.0,"04:10:24",1
"21/03/11","04:30",0.0,0.9,85.6,1023.0,314.4,0.7,1.9,314.3,0.00,-1.2,130.0,"04:20:16",1
"21/03/11","04:40",0.0,0.6,85.9,1023.4,323.3,1.6,2.9,336.5,0.00,-1.4,130.0,"04:34:08",1
"21/03/11","04:50",0.0,0.3,86.5,1023.2,314.3,1.3,1.8,316.7,0.00,-1.6,130.0,"04:40:16",1
"21/03/11","05:00",0.0,0.4,86.9,1023.0,301.1,1.7,2.2,307.1,0.00,-1.5,130.0,"04:59:44",1
"21/03/11","05:10",0.0,0.3,87.4,1023.2,311.6,1.3,2.1,317.6,0.00,-1.5,130.0,"05:02:56",1
"21/03/11","05:20",0.0,0.0,87.9,1023.2,327.9,1.1,1.8,332.3,0.00,-1.7,130.0,"05:14:48",1
"21/03/11","05:30",0.0,-0.2,88.3,1023.2,328.2,1.5,2.5,322.1,0.00,-1.9,130.0,"05:24:00",1
"21/03/11","05:40",0.0,-0.4,88.9,1023.2,334.2,0.8,1.8,308.9,0.00,-2.0,130.0,"05:38:32",1
"21/03/11","05:50",0.0,-0.6,89.3,1023.0,318.9,1.7,2.5,324.2,0.00,-2.1,130.0,"05:43:44",1
"21/03/11","06:00",0.0,-0.2,89.8,1023.0,309.1,1.8,2.7,316.5,0.00,-1.6,130.0,"05:55:20",1
"21/03/11","06:10",0.0,-0.2,90.2,1023.0,323.3,1.3,2.0,323.7,0.00,-1.6,130.0,"06:08:56",1
"21/03/11","06:20",0.0,-0.6,90.6,1023.2,331.9,1.7,2.2,334.3,0.00,-1.9,130.0,"06:14:56",1
"21/03/11","06:30",0.0,-0.7,91.0,1022.7,317.4,1.6,1.9,330.1,0.00,-1.9,130.0,"06:22:32",1
"21/03/11","06:40",0.0,-0.6,91.5,1022.7,313.0,1.0,1.7,325.2,0.00,-1.8,130.0,"06:30:24",1
"21/03/11","06:50",0.0,-0.4,91.8,1022.5,317.4,1.3,2.0,323.0,0.00,-1.5,130.0,"06:49:20",1
"21/03/11","07:00",0.0,0.0,92.1,1022.7,319.8,1.6,2.5,319.8,0.00,-1.1,130.0,"06:59:12",1
"21/03/11","07:10",0.0,0.5,92.3,1023.0,285.6,1.0,1.9,321.2,0.01,-0.6,130.0,"07:01:20",1
"21/03/11","07:20",0.0,1.3,92.5,1023.2,294.2,1.1,2.2,321.3,0.02,0.3,130.0,"07:16:34",1
"21/03/11","07:30",0.0,1.9,92.6,1023.2,305.6,1.5,2.2,314.6,0.02,0.9,130.0,"07:24:48",1
"21/03/11","07:40",0.0,2.8,92.6,1023.2,283.9,1.0,1.2,300.5,0.04,1.8,130.0,"07:30:16",1
"21/03/11","07:50",0.0,3.7,92.3,1023.7,314.8,0.6,1.7,320.6,0.06,2.6,130.0,"07:43:48",1
"21/03/11","08:00",0.0,3.9,91.9,1023.9,128.6,0.3,1.1,336.7,0.09,2.7,130.0,"07:59:48",1
"21/03/11","08:10",0.0,4.8,91.1,1024.1,307.4,1.1,2.4,327.4,0.12,3.5,130.0,"08:08:50",1
"21/03/11","08:20",0.0,5.7,90.0,1024.9,312.6,1.5,2.5,319.4,0.14,4.2,130.0,"08:19:52",1
"21/03/11","08:30",0.0,6.2,88.3,1025.1,331.7,1.0,2.4,325.3,0.17,4.5,130.0,"08:20:22",1
"21/03/11","08:40",0.0,7.0,85.7,1025.8,295.9,0.8,1.9,323.8,0.20,4.8,130.0,"08:35:44",1
"21/03/11","08:50",0.0,7.7,81.3,1025.6,260.3,0.7,1.3,262.6,0.23,4.7,130.0,"08:43:52",1
"21/03/11","09:00",0.0,8.1,75.6,1025.8,221.8,0.7,1.7,246.5,0.26,4.1,130.0,"08:58:24",1
"21/03/11","09:10",0.0,8.5,69.7,1025.6,348.9,0.6,1.2,335.7,0.29,3.3,130.0,"09:05:52",1
"21/03/11","09:20",0.0,8.9,66.1,1025.8,243.4,1.0,2.8,245.8,0.32,3.0,130.0,"09:16:48",1
"21/03/11","09:30",0.0,9.3,63.4,1025.6,227.2,1.1,2.4,114.8,0.34,2.8,130.0,"09:26:56",1
"21/03/11","09:40",0.0,9.1,61.4,1025.6,121.3,1.0,2.1,118.2,0.37,2.1,130.0,"09:33:20",1
"21/03/11","09:50",0.0,9.3,59.6,1025.8,114.5,1.1,2.5,118.0,0.39,1.9,130.0,"09:42:56",1
"21/03/11","10:00",0.0,9.7,55.8,1025.6,215.1,1.2,2.6,35.2,0.42,1.3,130.0,"09:56:24",1
"21/03/11","10:10",0.0,10.7,56.2,1025.8,183.2,1.0,3.4,130.5,0.44,2.4,130.0,"10:09:44",1
"21/03/11","10:20",0.0,11.1,54.0,1025.3,189.9,1.1,2.0,191.5,0.45,2.2,130.0,"10:13:36",1
"21/03/11","10:30",0.0,11.2,54.1,1025.3,164.6,1.5,2.5,181.2,0.47,2.3,130.0,"10:24:48",1
"21/03/11","10:40",0.0,11.9,51.6,1024.9,197.1,1.0,2.1,116.2,0.49,2.3,130.0,"10:32:48",1
"21/03/11","10:50",0.0,12.4,48.4,1024.9,174.4,0.8,2.5,189.8,0.50,1.9,130.0,"10:49:52",1
"21/03/11","11:00",0.0,12.9,49.1,1024.9,209.0,1.2,2.7,231.9,0.52,2.5,130.0,"10:51:52",1
"21/03/11","11:10",0.0,13.3,46.0,1024.9,238.8,1.2,2.4,177.2,0.53,2.0,130.0,"11:01:12",1
"21/03/11","11:20",0.0,14.0,47.2,1024.6,210.5,0.8,2.7,184.8,0.53,3.0,130.0,"11:10:02",1
"21/03/11","11:30",0.0,14.1,43.7,1024.4,197.0,1.1,2.6,109.1,0.55,2.0,130.0,"11:28:40",1
"21/03/11","11:40",0.0,14.4,40.1,1024.6,199.7,1.5,3.1,231.3,0.55,1.1,130.0,"11:32:48",1
"21/03/11","11:50",0.0,14.0,36.5,1024.4,124.6,1.1,2.5,119.1,0.48,-0.6,130.0,"11:47:28",1
"21/03/11","12:00",0.0,14.8,37.1,1024.1,142.9,1.2,3.1,121.3,0.56,0.3,130.0,"11:55:44",1
"21/03/11","12:10",0.0,15.4,34.3,1023.7,216.8,1.0,2.1,179.4,0.59,-0.2,130.0,"12:09:28",1
"21/03/11","12:20",0.0,15.6,34.1,1023.7,216.0,1.2,2.9,218.6,0.59,-0.1,130.0,"12:19:04",1
"21/03/11","12:30",0.0,15.7,35.3,1023.4,153.3,1.8,3.9,201.8,0.58,0.5,130.0,"12:24:56",1
"21/03/11","12:40",0.0,15.8,33.5,1023.2,194.9,1.7,3.6,209.1,0.58,-0.2,130.0,"12:38:24",1
"21/03/11","12:50",0.0,15.9,35.2,1022.7,180.2,1.6,2.8,142.4,0.56,0.6,130.0,"12:42:32",1
"21/03/11","13:00",0.0,16.4,36.0,1022.7,189.8,1.2,3.6,120.5,0.46,1.3,130.0,"12:58:48",1
"21/03/11","13:10",0.0,15.8,38.6,1022.7,133.5,2.0,4.0,104.2,0.48,1.8,130.0,"13:06:32",1
"21/03/11","13:20",0.0,16.4,39.7,1022.0,153.8,1.6,4.5,113.4,0.52,2.7,130.0,"13:19:44",1
"21/03/11","13:30",0.0,16.5,39.6,1022.5,133.7,2.0,4.8,124.4,0.54,2.8,130.0,"13:29:36",1
"21/03/11","13:40",0.0,16.8,39.7,1022.5,178.5,1.6,3.6,149.8,0.52,3.1,130.0,"13:30:32",1
"21/03/11","13:50",0.0,17.0,38.2,1022.0,195.0,1.6,3.4,196.4,0.52,2.7,130.0,"13:48:56",1
"21/03/11","14:00",0.0,17.2,37.8,1021.8,175.8,1.8,4.1,148.6,0.51,2.7,130.0,"13:55:04",1
"21/03/11","14:10",0.0,17.4,38.3,1021.5,158.9,1.7,3.3,160.0,0.50,3.1,130.0,"14:04:40",1
"21/03/11","14:20",0.0,17.5,38.0,1021.5,153.2,1.7,3.4,127.5,0.48,3.1,130.0,"14:16:56",1
"21/03/11","14:30",0.0,17.8,34.8,1021.1,198.8,1.6,3.1,130.9,0.46,2.1,130.0,"14:27:52",1
"21/03/11","14:40",0.0,17.6,35.6,1021.1,133.6,1.6,3.4,116.1,0.44,2.2,130.0,"14:37:44",1
"21/03/11","14:50",0.0,17.8,35.8,1020.8,137.2,1.6,3.4,111.2,0.42,2.5,130.0,"14:40:08",1
"21/03/11","15:00",0.0,17.8,32.8,1021.3,136.8,1.5,3.6,105.1,0.40,1.3,130.0,"14:55:28",1
"21/03/11","15:10",0.0,18.1,31.6,1021.1,210.2,1.5,3.4,190.0,0.35,1.0,130.0,"15:09:12",1
"21/03/11","15:20",0.0,17.7,31.0,1021.1,185.8,1.5,3.4,122.7,0.29,0.4,130.0,"15:10:40",1
"21/03/11","15:30",0.0,18.2,28.8,1020.8,218.6,1.2,2.6,115.2,0.32,-0.2,130.0,"15:27:52",1
"21/03/11","15:40",0.0,18.1,29.2,1021.1,169.5,1.1,2.4,185.9,0.26,-0.1,130.0,"15:30:02",1
"21/03/11","15:50",0.0,18.1,29.8,1020.6,178.0,0.7,2.2,160.5,0.23,0.2,130.0,"15:46:24",1
"21/03/11","16:00",0.0,17.3,28.9,1020.6,221.6,1.0,2.6,232.7,0.10,-0.9,130.0,"15:54:08",1
"21/03/11","16:10",0.0,16.9,28.3,1020.8,205.2,1.2,2.6,167.5,0.09,-1.5,130.0,"16:01:12",1
"21/03/11","16:20",0.0,17.1,27.8,1020.6,216.5,1.0,2.2,235.1,0.11,-1.6,130.0,"16:19:12",1
"21/03/11","16:30",0.0,16.8,27.5,1021.1,234.8,1.7,3.1,234.0,0.10,-2.0,130.0,"16:22:56",1
"21/03/11","16:40",0.0,16.6,28.1,1020.8,234.6,1.5,2.6,235.6,0.07,-1.9,130.0,"16:32:00",1
"21/03/11","16:50",0.0,16.4,30.5,1020.6,241.6,1.3,2.2,232.6,0.06,-0.9,130.0,"16:42:00",1
"21/03/11","17:00",0.0,16.3,31.0,1020.8,264.2,1.1,2.1,242.8,0.05,-0.8,130.0,"16:51:44",1
"21/03/11","17:10",0.0,16.2,29.2,1020.8,241.3,0.8,2.0,202.6,0.04,-1.7,130.0,"17:09:12",1
"21/03/11","17:20",0.0,16.1,31.0,1020.8,253.8,0.7,1.3,241.7,0.03,-1.0,130.0,"17:11:44",1
"21/03/11","17:30",0.0,15.8,38.7,1020.6,267.7,1.1,2.9,315.3,0.03,1.8,130.0,"17:27:04",1
"21/03/11","17:40",0.0,15.0,43.1,1020.6,326.6,2.0,2.9,330.2,0.01,2.6,130.0,"17:33:44",1
"21/03/11","17:50",0.0,14.3,46.3,1020.6,328.6,1.7,2.8,338.5,0.00,3.0,130.0,"17:48:34",1
"21/03/11","18:00",0.0,13.6,48.1,1020.8,312.6,2.0,3.9,341.8,0.00,2.9,130.0,"17:50:32",1
"21/03/11","18:10",0.0,13.0,50.0,1020.8,288.1,1.2,1.8,298.9,0.00,2.9,130.0,"18:09:44",1
"21/03/11","18:20",0.0,12.5,51.7,1020.8,308.4,1.8,2.4,324.6,0.00,2.9,130.0,"18:17:36",1
"21/03/11","18:30",0.0,12.1,53.0,1021.1,306.0,2.0,2.6,323.9,0.00,2.9,130.0,"18:25:28",1
"21/03/11","18:40",0.0,11.8,54.2,1021.1,294.7,1.8,2.5,308.9,0.00,2.9,130.0,"18:37:54",1
"21/03/11","18:50",0.0,11.5,54.4,1021.3,302.4,2.1,3.1,325.8,0.00,2.7,130.0,"18:42:14",1
"21/03/11","19:00",0.0,11.3,54.5,1021.1,296.5,2.1,2.6,318.6,0.00,2.5,130.0,"18:55:30",1
"21/03/11","19:10",0.0,11.0,54.6,1021.3,293.9,2.1,2.8,307.8,0.00,2.3,130.0,"19:07:06",1
"21/03/11","19:20",0.0,10.9,54.6,1021.1,294.0,2.0,2.8,312.5,0.00,2.2,130.0,"19:10:24",1
"21/03/11","19:30",0.0,10.6,55.2,1021.1,311.0,1.5,2.5,329.8,0.00,2.0,130.0,"19:21:12",1
"21/03/11","19:40",0.0,10.1,56.6,1021.3,299.2,1.6,2.0,304.7,0.00,1.9,130.0,"19:35:44",1
"21/03/11","19:50",0.0,10.0,56.9,1021.3,315.4,1.8,3.2,333.4,0.00,1.9,130.0,"19:48:16",1
"21/03/11","20:00",0.0,10.0,56.4,1021.8,292.8,2.1,3.1,312.6,0.00,1.8,130.0,"19:57:20",1
"21/03/11","20:10",0.0,10.0,56.7,1021.5,322.2,2.1,2.7,303.9,0.00,1.8,130.0,"20:04:32",1
"21/03/11","20:20",0.0,9.3,58.7,1021.5,317.0,1.7,2.4,330.6,0.00,1.7,130.0,"20:10:16",1
"21/03/11","20:30",0.0,9.2,58.0,1021.3,300.1,2.0,2.7,310.8,0.00,1.4,130.0,"20:25:36",1
"21/03/11","20:40",0.0,9.0,60.7,1021.3,321.8,2.1,2.7,326.7,0.00,1.9,130.0,"20:34:00",1
"21/03/11","20:50",0.0,8.3,63.6,1021.3,316.2,2.0,2.7,321.0,0.00,1.8,130.0,"20:41:12",1
"21/03/11","21:00",0.0,7.9,65.3,1021.3,321.8,2.1,2.7,326.5,0.00,1.8,130.0,"20:51:12",1
"21/03/11","21:10",0.0,7.9,65.4,1021.1,316.3,2.1,2.6,320.5,0.00,1.9,130.0,"21:04:00",1
"21/03/11","21:20",0.0,7.7,65.4,1021.1,324.5,1.8,2.7,321.4,0.00,1.7,130.0,"21:10:40",1
"21/03/11","21:30",0.0,7.5,65.6,1020.8,309.7,1.3,2.8,325.2,0.00,1.5,130.0,"21:29:20",1
"21/03/11","21:40",0.0,7.4,66.4,1021.1,283.0,0.6,1.4,321.0,0.00,1.6,130.0,"21:31:28",1
"21/03/11","21:50",0.0,7.3,67.9,1021.1,321.3,2.0,2.7,325.4,0.00,1.8,130.0,"21:49:12",1
"21/03/11","22:00",0.0,6.9,68.8,1021.3,318.1,1.7,2.5,323.1,0.00,1.6,130.0,"21:51:20",1
"21/03/11","22:10",0.0,7.0,68.7,1021.1,326.1,1.6,2.4,317.4,0.00,1.7,130.0,"22:03:52",1
"21/03/11","22:20",0.0,6.9,68.3,1021.1,309.3,1.8,2.5,315.9,0.00,1.5,130.0,"22:15:20",1
"21/03/11","22:30",0.0,6.7,68.0,1020.6,309.3,2.0,2.6,308.3,0.00,1.3,130.0,"22:24:00",1
"21/03/11","22:40",0.0,6.8,68.2,1020.8,320.3,2.0,3.2,323.6,0.00,1.4,130.0,"22:36:08",1
"21/03/11","22:50",0.0,6.1,69.3,1021.1,307.9,1.8,2.6,329.0,0.00,0.9,130.0,"22:47:44",1
"21/03/11","23:00",0.0,6.2,69.6,1020.8,296.1,1.8,2.5,317.9,0.00,1.1,130.0,"22:51:44",1
"21/03/11","23:10",0.0,6.1,69.5,1020.8,303.7,1.5,2.1,317.2,0.00,1.0,130.0,"23:08:40",1
"21/03/11","23:20",0.0,6.0,69.7,1020.6,318.0,1.7,2.4,317.4,0.00,0.9,130.0,"23:18:56",1
"21/03/11","23:30",0.0,5.5,70.9,1020.4,325.0,2.1,2.8,322.2,0.00,0.7,130.0,"23:20:40",1
"21/03/11","23:40",0.0,5.3,71.7,1019.9,310.1,1.8,2.6,318.4,0.00,0.6,130.0,"23:32:16",1
"21/03/11","23:50",0.0,5.5,72.4,1019.9,296.7,2.0,2.2,296.7,0.00,1.0,130.0,"23:44:56",1
"21/03/11","24:00",0.0,5.7,72.6,1020.4,325.1,1.0,2.9,317.4,0.00,1.2,130.0,"23:50:02",1
